Location: Mentone
(34.5413°N, 85.5351°W)
Time: 00:46:58
(UTC-05:00)

AO-Echo - Visible Passes

Search period start: 27 May 2015 00:00
Search period end: 06 June 2015 00:00
Orbit: 693 x 812 km, 98.3° (Epoch: 26 May)

Date Brightness Start Highest point End Pass type
(mag) Time Alt. Az. Time Alt. Az. Time Alt. Az.
27 May ? 02:19:37 10° NNE 02:24:18 61° E 02:24:18 61° E visible
27 May ? 04:00:26 10° NW 04:03:00 14° WNW 04:04:15 12° W visible
28 May ? 01:40:07 10° NE 01:43:34 24° E 01:43:34 24° E visible
28 May ? 03:18:25 10° N 03:22:57 33° WNW 03:23:31 32° W visible
29 May ? 02:37:40 10° N 02:42:46 85° WNW 02:42:46 85° WNW visible
30 May ? 01:57:42 10° NNE 02:02:01 36° E 02:02:01 36° E visible
30 May ? 03:37:01 10° NNW 03:40:59 23° WNW 03:41:58 21° W visible
31 May ? 01:19:07 10° ENE 01:21:17 14° E 01:21:17 14° E visible
31 May ? 02:55:52 10° N 03:00:52 56° WNW 03:01:14 54° W visible
01 Jun ? 02:15:33 10° NNE 02:20:28 57° E 02:20:28 57° E visible
01 Jun ? 03:56:00 10° NNW 03:59:00 15° WNW 04:00:25 13° W visible
02 Jun ? 01:36:09 10° NE 01:39:43 22° E 01:39:43 22° E visible
02 Jun ? 03:14:13 10° N 03:18:57 37° WNW 03:19:41 35° W visible
03 Jun ? 02:33:34 10° NNE 02:38:45 88° ESE 02:38:55 84° S visible
04 Jun ? 01:53:41 10° NNE 01:58:10 34° E 01:58:10 34° E visible
04 Jun ? 03:32:47 10° NNW 03:36:59 25° WNW 03:38:07 23° W visible
05 Jun ? 01:15:21 10° ENE 01:17:24 13° E 01:17:24 13° E visible
05 Jun ? 02:51:45 10° N 02:56:52 61° WNW 02:57:22 58° WSW visible
